Location: Norwich
(42.5310°N, 75.5240°W)
Time: 13:18:37
(UTC-04:00)

Envisat - Pass Details

Date: 24 March 2019
Orbit: 764 x 766 km, 98.1° (Epoch: 21 October)

Event Time Altitude Azimuth Distance (km) Brightness Sun altitude
Rises 20:02:13 0° 180° (S) 3,214 6.1 -8.8°
Reaches altitude 10° 20:04:35 10° 185° (S) 2,292 5.4 -9.2°
Maximum altitude 20:09:28 50° 261° (W) 976 4.0 -10.1°
Drops below altitude 10° 20:14:25 10° 336° (NNW) 2,309 6.0 -11.0°
Sets 20:16:48 0° 342° (NNW) 3,240 6.7 -11.4°
